User: anonymous   Login
Location: Caltech
(34.1382°N, 118.1253°W)
Time: 17:22:59
(UTC-08:00)
Language:

Cosmos 2360 Rocket - Orbit

View from above orbital plane
View from above orbital plane
View from above satellite
View from above satellite

Ground track
Ground track

The orbit data is extracted from the following two-line orbital elements,

1 25407U 98045B   16038.93039952 +.00000241 +00000-0 +14708-3 0  9992
2 25407 071.0127 002.1740 0009911 247.4799 112.5276 14.15736496905817
Epoch (UTC): 07 February 2016 22:19:46
Eccentricity: 0.0009911
inclination: 71.0127°
perigee height: 832 km
apogee height: 847 km
right ascension of ascending node: 2.1740°
argument of perigee: 247.4799°
revolutions per day: 14.15736496
mean anomaly at epoch: 112.5276°
orbit number at epoch: 90581

The dashed part of the orbit path shows where the satellite is in the earth's shadow,  

DLR